[[{"header":{"parameterUnit":"m.s-1","parameterCategory":1,"la1":30.2992,"la2":30.254,"lo1":-89.0895,"lo2":-89.0443,"dy":0.0025,"dx":0.0025,"nx":19,"ny":19,"refTime":"2026-04-20T03:00:00:Z","depth":0,"parameterNumber":2,"parameterNumberName":"U-component_of_WINDS"},"data":[0,0,0,-1.2257,-1.226,-1.2427,-1.2427,-1.2646,-1.2648,0,0,0,0,0,0,0,0,0,0,0,-1.2209,-1.2211,-1.2256,-1.226,-1.2427,-1.2427,-1.2645,-1.2648,0,0,0,0,0,0,0,0,0,0,0,-1.2209,-1.221,-1.2212,-1.2261,-1.2426,-1.2427,-1.2645,-1.2518,0,0,0,0,0,0,0,0,0,0,-1.2355,-1.2314,-1.221,-1.2212,-1.2262,-1.2426,-1.2427,-1.2512,-1.2526,-1.2572,0,-1.2613,0,-1.2633,-1.2663,-1.2663,0,0,0,-1.226,-1.2302,-1.2344,-1.2213,-1.2264,-1.2426,-1.2351,-1.252,-1.2536,-1.2591,-1.2616,-1.2624,-1.2637,-1.2664,-1.2665,-1.2929,-1.2931,0,0,-1.2251,-1.2241,-1.2333,-1.2355,-1.2328,-1.2346,-1.2357,-1.2529,-1.2557,-1.2617,-1.2629,-1.2641,-1.2666,-1.2667,-1.2928,-1.293,0,0,0,-1.2225,-1.2235,-1.2273,-1.2346,-1.2375,-1.2351,-1.2363,-1.2549,-1.2562,-1.2631,-1.2643,-1.2667,-1.267,-1.2927,-1.2929,-1.2981,0,0,0,-1.2219,-1.222,-1.2269,-1.2265,-1.2372,-1.2464,-1.2379,-1.255,-1.257,-1.2642,-1.2667,-1.2672,-1.2926,-1.2928,-1.2976,-1.3008,0,0,0,-1.2198,-1.2217,-1.2242,-1.2264,-1.2335,-1.2461,-1.2484,-1.2554,-1.2577,-1.2664,-1.2672,-1.2925,-1.2927,-1.2973,-1.3002,-1.3074,0,0,0,-1.2174,-1.2289,-1.2242,-1.2375,-1.2334,-1.2491,-1.2483,-1.2602,-1.2682,-1.2668,-1.2926,-1.2929,-1.2971,-1.2998,-1.3069,-1.3133,-1.3158,0,0,-1.2314,-1.2305,-1.2384,-1.2347,-1.251,-1.2467,-1.2638,-1.2723,-1.2741,-1.2866,-1.2872,-1.2978,-1.3001,-1.3073,-1.3302,-1.3322,0,0,0,-1.2426,-1.2482,-1.2527,-1.2601,-1.2665,-1.2723,-1.2781,-1.2811,-1.2917,-1.2802,-1.3024,-1.3038,-1.308,-1.3111,-1.3128,-1.3165,-1.2942,-1.2942,-1.2942,-1.2614,-1.2626,-1.2757,-1.2789,-1.2861,-1.2917,-1.2977,-1.3028,-1.3024,-1.3075,-1.3113,-1.325,-1.3286,-1.3299,-1.3337,-1.3147,-1.3147,-1.3148,-1.3148,-1.2821,-1.2902,-1.2888,-1.301,-1.3023,-1.3126,-1.3184,-1.3176,-1.3275,-1.3224,-1.3262,-1.3206,-1.332,-1.3354,-1.3152,-1.3151,-1.3151,-1.315,-1.315,-1.2946,-1.2987,-1.3019,-1.3124,-1.3204,-1.3233,-1.3326,-1.3336,-1.3346,-1.3384,-1.3424,-1.3423,-1.3423,-1.3401,-1.3402,-1.3402,-1.3403,-1.3403,-1.3403,-1.3063,-1.3097,-1.3174,-1.3247,-1.3294,-1.3357,-1.3411,-1.3458,-1.3512,-1.3512,-1.3513,-1.3502,-1.3328,-1.3284,-1.3411,-1.341,-1.3409,-1.3408,-1.3407,-1.327,-1.3223,-1.3341,-1.3388,-1.3473,-1.355,-1.3559,-1.3653,-1.3693,-1.3739,-1.3719,-1.3588,-1.3582,-1.3568,-1.3532,-1.3715,-1.3715,-1.3715,-1.3715,-1.3376,-1.3372,-1.3492,-1.3565,-1.3637,-1.3655,-1.3788,-1.383,-1.3867,-1.3892,-1.3866,-1.3819,-1.3804,-1.3806,-1.3788,-1.3754,-1.399,-1.3991,-1.3991,-1.3504,-1.3506,-1.3617,-1.3648,-1.3714,-1.3771,-1.3896,-1.3981,-1.4013,-1.4002,-1.3912,-1.39,-1.3824,-1.3798,-1.3788,-1.3759,-1.3697,0,0]},{"header":{"parameterUnit":"m.s-1","parameterCategory":1,"la1":30.2992,"la2":30.254,"lo1":-89.0895,"lo2":-89.0443,"dy":0.0025,"dx":0.0025,"nx":19,"ny":19,"refTime":"2026-04-20T03:00:00:Z","depth":0,"parameterNumber":3,"parameterNumberName":"V-component_of_WINDS"},"data":[0,0,0,-0.7735,-0.7737,-0.781,-0.781,-0.7889,-0.789,0,0,0,0,0,0,0,0,0,0,0,-0.7706,-0.7707,-0.7735,-0.7737,-0.781,-0.781,-0.7889,-0.789,0,0,0,0,0,0,0,0,0,0,0,-0.7706,-0.7707,-0.7707,-0.7737,-0.781,-0.781,-0.7889,-0.7839,0,0,0,0,0,0,0,0,0,0,-0.777,-0.7737,-0.7707,-0.7707,-0.7737,-0.781,-0.781,-0.7837,-0.7842,-0.785,0,-0.7857,0,-0.7875,-0.7895,-0.7895,0,0,0,-0.7742,-0.7732,-0.7758,-0.7707,-0.7738,-0.781,-0.7778,-0.784,-0.7846,-0.7857,-0.7859,-0.7862,-0.7876,-0.7895,-0.7895,-0.7927,-0.7927,0,0,-0.7738,-0.7716,-0.7754,-0.7762,-0.7751,-0.7776,-0.7781,-0.7844,-0.7843,-0.7859,-0.7864,-0.7877,-0.7895,-0.7896,-0.7927,-0.7927,0,0,0,-0.7723,-0.7713,-0.7738,-0.7758,-0.7773,-0.7778,-0.7783,-0.784,-0.785,-0.7865,-0.7878,-0.7896,-0.7897,-0.7928,-0.7927,-0.79,0,0,0,-0.7721,-0.7704,-0.7736,-0.7722,-0.7771,-0.7808,-0.7778,-0.7846,-0.7854,-0.7878,-0.7896,-0.7897,-0.7928,-0.7927,-0.7901,-0.7892,0,0,0,-0.7704,-0.7702,-0.771,-0.7721,-0.7752,-0.7807,-0.7821,-0.7848,-0.7862,-0.7895,-0.7897,-0.7928,-0.7927,-0.7902,-0.7893,-0.7893,0,0,0,-0.768,-0.7686,-0.7709,-0.7721,-0.7751,-0.779,-0.7821,-0.7851,-0.7876,-0.7896,-0.7928,-0.7927,-0.7903,-0.7894,-0.7894,-0.7889,-0.7884,0,0,-0.7675,-0.7685,-0.7693,-0.7716,-0.7745,-0.7781,-0.7805,-0.785,-0.7873,-0.7907,-0.7909,-0.7901,-0.7893,-0.7893,-0.7868,-0.7864,0,0,0,-0.7684,-0.769,-0.7702,-0.7725,-0.7758,-0.7786,-0.7829,-0.7844,-0.7874,-0.7887,-0.7901,-0.7897,-0.7898,-0.7897,-0.7894,-0.7895,-0.7926,-0.7926,-0.7926,-0.7646,-0.7675,-0.769,-0.7727,-0.7748,-0.779,-0.781,-0.7838,-0.7862,-0.7864,-0.7875,-0.7857,-0.7854,-0.7852,-0.7853,-0.7875,-0.7875,-0.7874,-0.7874,-0.7642,-0.7654,-0.7683,-0.7708,-0.7738,-0.7759,-0.7798,-0.7814,-0.7836,-0.7852,-0.7854,-0.7868,-0.7847,-0.785,-0.7873,-0.7873,-0.7873,-0.7873,-0.7873,-0.7621,-0.7632,-0.765,-0.7683,-0.7705,-0.7742,-0.7761,-0.7788,-0.7812,-0.7814,-0.7827,-0.7828,-0.7831,-0.7818,-0.7818,-0.7818,-0.7818,-0.7818,-0.7818,-0.7592,-0.7614,-0.7628,-0.7661,-0.7677,-0.7702,-0.7741,-0.7758,-0.7783,-0.78,-0.78,-0.7822,-0.784,-0.7844,-0.7817,-0.7817,-0.7817,-0.7817,-0.7817,-0.7578,-0.7585,-0.7607,-0.7623,-0.7662,-0.7681,-0.7712,-0.7743,-0.776,-0.7768,-0.7789,-0.7798,-0.781,-0.7812,-0.7816,-0.7783,-0.7783,-0.7783,-0.7783,-0.7561,-0.7569,-0.7595,-0.7618,-0.7644,-0.7674,-0.7695,-0.7724,-0.7756,-0.7767,-0.7775,-0.7782,-0.7783,-0.7794,-0.7797,-0.7801,-0.7766,-0.7766,-0.7766,-0.7554,-0.7564,-0.7579,-0.7609,-0.7641,-0.7667,-0.7687,-0.7711,-0.7748,-0.7765,-0.7777,-0.7778,-0.7788,-0.779,-0.781,-0.7814,-0.7821,0,0]}]]